Tracking 19709 objects as of 17-Jun-2019
HD Live streaming from Space Station
objects crossing your sky now

METEOR 1-10 DEB

Track METEOR 1-10 DEB now!
10-day predictions


NORAD ID: 43292
Int'l Code: 1971-120W
Perigee: 663.7 km
Apogee: 698.6 km
Inclination: 81.2 °
Period: 98.2 minutes
Semi major axis: 7052 km
RCS: Unknown
Launch date: December 29, 1971
Source: Commonwealth of Independent States (former USSR) (CIS)
Launch site: PLESETSK MISSILE AND SPACE COMPLEX (PKMTR)

Note: This is SATELLITE DEBRIS
aabbcc
Your satellite tracking list
Your tracking list is empty




NASA's NSSDC Master Catalog

Two Line Element Set (TLE):
1 43292U 71120W   19167.30212414 +.00000791 +00000-0 +14103-3 0  9991
2 43292 081.2313 127.7270 0024688 042.9666 317.3458 14.65952962233803
Source of the keplerian elements: AFSPC